EJU15WN EGCC-LEPA

Flight info

Callsign EJU15WN
Flight time 2h 25m
Altitude 37000
Route SANBA N859 HON UN859 SOPIL DCT BALAN DCT EVPOK DCT NARAK DCT GAI DCT LOMRA DCT ROCAN DCT IBRAP N13 LORES
Aircraft A320/M-SDE2E3FGHIJ1RWXYZ/LB1

Departure

Time 2026-05-07 20:22
Airport Manchester Airport (EGCC)

Arrival

Time 2026-05-07 22:48
Airport Palma de Mallorca Airport (LEPA)
Time Latitude Longitude Altitude Speed Heading
2026-05-07 19:50 53.36862 -2.28600 255 ft 0 kts 314°
2026-05-07 20:11 53.36855 -2.28588 255 ft 4 kts 315°
2026-05-07 20:11 53.36837 -2.28559 255 ft 2 kts 315°
2026-05-07 20:11 53.36825 -2.28531 255 ft 4 kts 270°
2026-05-07 20:12 53.36833 -2.28497 255 ft 2 kts 224°
2026-05-07 20:12 53.36823 -2.28513 255 ft 4 kts 224°
2026-05-07 20:12 53.36812 -2.28531 255 ft 0 kts 224°
2026-05-07 20:15 53.36807 -2.28540 255 ft 4 kts 225°
2026-05-07 20:15 53.36778 -2.28589 255 ft 8 kts 224°
2026-05-07 20:15 53.36728 -2.28670 255 ft 11 kts 224°
2026-05-07 20:16 53.36677 -2.28748 255 ft 9 kts 217°
2026-05-07 20:16 53.36621 -2.28787 255 ft 9 kts 191°
2026-05-07 20:16 53.36564 -2.28731 255 ft 12 kts 134°
2026-05-07 20:16 53.36502 -2.28627 255 ft 13 kts 135°
2026-05-07 20:17 53.36431 -2.28507 255 ft 16 kts 129°
2026-05-07 20:17 53.36375 -2.28335 255 ft 17 kts 133°
2026-05-07 20:17 53.36291 -2.28195 255 ft 17 kts 136°
2026-05-07 20:17 53.36209 -2.28056 255 ft 17 kts 135°
2026-05-07 20:18 53.36116 -2.27921 255 ft 18 kts 142°
2026-05-07 20:18 53.36013 -2.27786 255 ft 19 kts 142°
2026-05-07 20:18 53.35889 -2.27729 255 ft 20 kts 181°
2026-05-07 20:18 53.35743 -2.27750 247 ft 20 kts 185°
2026-05-07 20:19 53.35590 -2.27764 240 ft 23 kts 165°
2026-05-07 20:19 53.35546 -2.27610 241 ft 16 kts 59°
2026-05-07 20:19 53.35616 -2.27463 245 ft 19 kts 51°
2026-05-07 20:19 53.35698 -2.27292 255 ft 19 kts 51°
2026-05-07 20:20 53.35787 -2.27108 255 ft 21 kts 51°
2026-05-07 20:20 53.35869 -2.26903 256 ft 21 kts 51°
2026-05-07 20:20 53.35955 -2.26703 256 ft 22 kts 50°
2026-05-07 20:20 53.36053 -2.26501 256 ft 23 kts 51°
2026-05-07 20:21 53.36141 -2.26313 255 ft 18 kts 61°
2026-05-07 20:21 53.36075 -2.26169 257 ft 16 kts 139°
2026-05-07 20:21 53.36023 -2.26154 259 ft 6 kts 227°
2026-05-07 20:21 53.35926 -2.26352 265 ft 53 kts 231°
2026-05-07 20:22 53.35543 -2.27144 251 ft 120 kts 231°
2026-05-07 20:22 53.34914 -2.28457 387 ft 156 kts 231°
2026-05-07 20:22 53.34243 -2.29843 1094 ft 153 kts 228°
2026-05-07 20:22 53.33556 -2.31259 1688 ft 163 kts 227°
2026-05-07 20:23 53.32805 -2.32791 2115 ft 178 kts 227°
2026-05-07 20:23 53.32242 -2.34751 2485 ft 204 kts 261°
2026-05-07 20:23 53.32375 -2.37292 2841 ft 235 kts 278°
2026-05-07 20:23 53.32723 -2.40083 3380 ft 254 kts 273°
2026-05-07 20:24 53.32580 -2.43007 4246 ft 252 kts 248°
2026-05-07 20:24 53.31578 -2.45364 5100 ft 253 kts 214°
2026-05-07 20:24 53.29933 -2.46343 5982 ft 256 kts 188°
2026-05-07 20:24 53.28161 -2.46390 6816 ft 262 kts 173°
2026-05-07 20:25 53.26484 -2.45129 7602 ft 272 kts 145°
2026-05-07 20:25 53.25011 -2.43103 8432 ft 275 kts 146°
2026-05-07 20:25 53.23382 -2.41344 9288 ft 276 kts 153°
2026-05-07 20:25 53.21698 -2.39848 10053 ft 280 kts 156°
2026-05-07 20:26 53.19915 -2.38381 10473 ft 297 kts 156°
2026-05-07 20:26 53.17983 -2.36816 10742 ft 318 kts 156°
2026-05-07 20:26 53.15975 -2.35156 11325 ft 326 kts 155°
2026-05-07 20:26 53.13941 -2.33431 12015 ft 331 kts 155°
2026-05-07 20:27 53.11886 -2.31658 12743 ft 334 kts 155°
2026-05-07 20:27 53.09815 -2.29856 13456 ft 338 kts 154°
2026-05-07 20:27 53.07716 -2.28027 14109 ft 342 kts 154°
2026-05-07 20:27 53.05600 -2.26182 14718 ft 345 kts 154°
2026-05-07 20:28 53.03463 -2.24323 15346 ft 348 kts 154°
2026-05-07 20:28 53.01307 -2.22446 15973 ft 351 kts 154°
2026-05-07 20:28 52.99135 -2.20551 16590 ft 355 kts 154°
2026-05-07 20:28 52.96939 -2.18640 17203 ft 358 kts 154°
2026-05-07 20:29 52.94727 -2.16717 17804 ft 361 kts 154°
2026-05-07 20:29 52.92491 -2.14778 18398 ft 364 kts 154°
2026-05-07 20:29 52.90237 -2.12832 18909 ft 367 kts 155°
2026-05-07 20:29 52.87960 -2.10870 19416 ft 370 kts 155°
2026-05-07 20:30 52.85666 -2.08895 19919 ft 374 kts 155°
2026-05-07 20:30 52.83352 -2.06903 20419 ft 377 kts 155°
2026-05-07 20:30 52.81015 -2.04890 20909 ft 380 kts 155°
2026-05-07 20:30 52.78661 -2.02866 21387 ft 383 kts 155°
2026-05-07 20:31 52.76288 -2.00832 21841 ft 386 kts 155°
2026-05-07 20:31 52.73891 -1.98780 22278 ft 390 kts 155°
2026-05-07 20:31 52.71476 -1.96711 22748 ft 393 kts 155°
2026-05-07 20:31 52.69042 -1.94631 23204 ft 396 kts 155°
2026-05-07 20:32 52.66587 -1.92541 23637 ft 399 kts 155°
2026-05-07 20:32 52.64114 -1.90436 24012 ft 401 kts 155°
2026-05-07 20:32 52.61626 -1.88317 24392 ft 404 kts 155°
2026-05-07 20:32 52.59125 -1.86188 24778 ft 406 kts 155°
2026-05-07 20:33 52.56611 -1.84051 25154 ft 408 kts 155°
2026-05-07 20:33 52.54082 -1.81907 25521 ft 410 kts 155°
2026-05-07 20:33 52.51536 -1.79750 25887 ft 412 kts 155°
2026-05-07 20:33 52.48981 -1.77588 26260 ft 414 kts 155°
2026-05-07 20:34 52.46420 -1.75423 26625 ft 416 kts 155°
2026-05-07 20:34 52.43840 -1.73247 26983 ft 418 kts 155°
2026-05-07 20:34 52.41285 -1.71095 27316 ft 420 kts 155°
2026-05-07 20:34 52.38684 -1.68906 27666 ft 422 kts 155°
2026-05-07 20:35 52.36056 -1.66750 28006 ft 423 kts 159°
2026-05-07 20:35 52.33293 -1.65117 28333 ft 423 kts 165°
2026-05-07 20:35 52.30486 -1.63657 28671 ft 425 kts 165°
2026-05-07 20:35 52.27665 -1.62196 29012 ft 427 kts 165°
2026-05-07 20:36 52.24829 -1.60727 29335 ft 428 kts 165°
2026-05-07 20:36 52.21986 -1.59249 29680 ft 430 kts 165°
2026-05-07 20:36 52.19126 -1.57763 29992 ft 432 kts 165°
2026-05-07 20:36 52.16257 -1.56274 30263 ft 434 kts 165°
2026-05-07 20:37 52.14353 -1.55285 30428 ft 435 kts 165°
2026-05-07 20:37 52.11425 -1.53764 30677 ft 437 kts 165°
2026-05-07 20:37 52.08563 -1.52279 30915 ft 438 kts 165°
2026-05-07 20:37 52.05655 -1.50770 31202 ft 438 kts 165°
2026-05-07 20:38 52.02755 -1.49268 31524 ft 437 kts 165°
2026-05-07 20:38 51.99858 -1.47773 31905 ft 435 kts 165°
2026-05-07 20:38 51.96977 -1.46292 32244 ft 435 kts 165°
2026-05-07 20:38 51.94093 -1.44812 32525 ft 435 kts 165°
2026-05-07 20:39 51.91205 -1.43329 32844 ft 435 kts 165°
2026-05-07 20:39 51.88320 -1.41852 33164 ft 435 kts 165°
2026-05-07 20:39 51.85444 -1.40380 33492 ft 434 kts 165°
2026-05-07 20:39 51.82565 -1.38912 33827 ft 433 kts 165°
2026-05-07 20:40 51.79688 -1.37451 34131 ft 433 kts 165°
2026-05-07 20:40 51.76824 -1.35992 34421 ft 432 kts 165°
2026-05-07 20:40 51.73962 -1.34528 34677 ft 431 kts 165°
2026-05-07 20:40 51.71097 -1.33067 34910 ft 431 kts 165°
2026-05-07 20:41 51.68234 -1.31610 35126 ft 432 kts 165°
2026-05-07 20:41 51.65372 -1.30156 35349 ft 432 kts 165°
2026-05-07 20:41 51.62498 -1.28700 35550 ft 432 kts 165°
2026-05-07 20:41 51.59631 -1.27248 35753 ft 433 kts 165°
2026-05-07 20:42 51.56758 -1.25797 35953 ft 433 kts 165°
2026-05-07 20:42 51.53885 -1.24349 36158 ft 433 kts 165°
2026-05-07 20:42 51.51008 -1.22902 36367 ft 433 kts 165°
2026-05-07 20:42 51.48172 -1.21253 36559 ft 435 kts 158°
2026-05-07 20:43 51.45417 -1.19217 36734 ft 436 kts 158°
2026-05-07 20:43 51.42665 -1.17184 36907 ft 436 kts 158°
2026-05-07 20:43 51.39903 -1.15153 37047 ft 436 kts 158°
2026-05-07 20:44 51.34395 -1.11113 37062 ft 435 kts 158°
2026-05-07 20:44 51.28928 -1.07109 37084 ft 434 kts 158°
2026-05-07 20:45 51.23396 -1.03071 37085 ft 434 kts 158°
2026-05-07 20:45 51.17903 -0.99068 37084 ft 434 kts 158°
2026-05-07 20:46 51.12449 -0.95089 37084 ft 434 kts 158°
2026-05-07 20:46 51.06954 -0.91115 37067 ft 434 kts 158°
2026-05-07 20:47 51.01455 -0.87144 37062 ft 434 kts 158°
2026-05-07 20:47 50.95959 -0.83172 37061 ft 434 kts 158°
2026-05-07 20:48 50.90456 -0.79214 37058 ft 434 kts 158°
2026-05-07 20:48 50.84994 -0.75113 37049 ft 436 kts 151°
2026-05-07 20:49 50.79885 -0.69913 37053 ft 437 kts 150°
2026-05-07 20:49 50.74770 -0.64713 37053 ft 437 kts 150°
2026-05-07 20:50 50.69651 -0.59531 37066 ft 437 kts 150°
2026-05-07 20:50 50.64529 -0.54362 37056 ft 437 kts 150°
2026-05-07 20:51 50.59406 -0.49197 37058 ft 437 kts 150°
2026-05-07 20:51 50.54290 -0.44040 37062 ft 437 kts 150°
2026-05-07 20:52 50.49171 -0.38891 37066 ft 437 kts 150°
2026-05-07 20:52 50.44080 -0.33792 37068 ft 437 kts 150°
2026-05-07 20:53 50.38953 -0.28673 37061 ft 437 kts 150°
2026-05-07 20:53 50.33824 -0.23567 37064 ft 437 kts 150°
2026-05-07 20:54 50.28695 -0.18467 37073 ft 437 kts 150°
2026-05-07 20:54 50.23566 -0.13382 37063 ft 437 kts 150°
2026-05-07 20:55 50.18431 -0.08312 37057 ft 437 kts 150°
2026-05-07 20:55 50.13291 -0.03257 37059 ft 437 kts 150°
2026-05-07 20:56 50.07867 0.00812 37047 ft 431 kts 166°
2026-05-07 20:56 50.02072 0.03139 37052 ft 430 kts 168°
2026-05-07 20:57 49.96265 0.05412 37040 ft 431 kts 168°
2026-05-07 20:57 49.90452 0.07693 37049 ft 431 kts 168°
2026-05-07 20:58 49.84636 0.09975 37054 ft 431 kts 168°
2026-05-07 20:58 49.78823 0.12252 37042 ft 431 kts 168°
2026-05-07 20:59 49.72998 0.14520 37040 ft 432 kts 168°
2026-05-07 20:59 49.67174 0.16781 37048 ft 432 kts 168°
2026-05-07 21:00 49.61358 0.19112 37049 ft 432 kts 168°
2026-05-07 21:00 49.55589 0.21467 37052 ft 432 kts 168°
2026-05-07 21:01 49.49780 0.23817 37047 ft 432 kts 168°
2026-05-07 21:01 49.43965 0.26146 37052 ft 432 kts 168°
2026-05-07 21:02 49.38149 0.28454 37057 ft 432 kts 168°
2026-05-07 21:02 49.32330 0.30757 37054 ft 432 kts 168°
2026-05-07 21:03 49.26522 0.33125 37047 ft 432 kts 167°
2026-05-07 21:03 49.20730 0.35603 37034 ft 432 kts 167°
2026-05-07 21:04 49.14932 0.38071 37037 ft 433 kts 167°
2026-05-07 21:04 49.09129 0.40516 37041 ft 433 kts 167°
2026-05-07 21:05 49.03326 0.42944 37035 ft 432 kts 167°
2026-05-07 21:05 48.97516 0.45351 37026 ft 432 kts 167°
2026-05-07 21:06 48.91719 0.47755 37037 ft 432 kts 167°
2026-05-07 21:06 48.85917 0.50177 37036 ft 432 kts 167°
2026-05-07 21:07 48.80118 0.52597 37052 ft 432 kts 167°
2026-05-07 21:07 48.74315 0.54947 37053 ft 432 kts 168°
2026-05-07 21:08 48.68496 0.57195 37051 ft 432 kts 168°
2026-05-07 21:08 48.62715 0.59426 37042 ft 432 kts 168°
2026-05-07 21:09 48.56899 0.61692 37052 ft 431 kts 168°
2026-05-07 21:09 48.51092 0.63957 37061 ft 431 kts 168°
2026-05-07 21:10 48.45303 0.66295 37054 ft 431 kts 167°
2026-05-07 21:10 48.39512 0.68678 37048 ft 431 kts 168°
2026-05-07 21:11 48.33731 0.71035 37048 ft 430 kts 168°
2026-05-07 21:11 48.25065 0.74539 37041 ft 430 kts 168°
2026-05-07 21:12 48.19285 0.76835 37036 ft 430 kts 168°
2026-05-07 21:12 48.13500 0.79092 37032 ft 429 kts 168°
2026-05-07 21:13 48.07717 0.81353 37037 ft 430 kts 168°
2026-05-07 21:13 48.01935 0.83620 37037 ft 430 kts 168°
2026-05-07 21:14 47.96155 0.85885 37021 ft 429 kts 168°
2026-05-07 21:14 47.90373 0.88134 37026 ft 429 kts 168°
2026-05-07 21:15 47.84594 0.90378 37025 ft 429 kts 168°
2026-05-07 21:15 47.78815 0.92607 37010 ft 429 kts 168°
2026-05-07 21:16 47.73071 0.94826 37012 ft 429 kts 168°
2026-05-07 21:16 47.67300 0.97073 37016 ft 429 kts 168°
2026-05-07 21:17 47.61526 0.99300 37016 ft 429 kts 168°
2026-05-07 21:17 47.55749 1.01510 37011 ft 429 kts 168°
2026-05-07 21:18 47.49976 1.03720 37015 ft 429 kts 168°
2026-05-07 21:18 47.44199 1.05890 37006 ft 427 kts 173°
2026-05-07 21:19 47.38330 1.06343 37011 ft 422 kts 184°
2026-05-07 21:19 47.32459 1.06188 37001 ft 422 kts 184°
2026-05-07 21:20 47.26594 1.06044 37005 ft 422 kts 184°
2026-05-07 21:20 47.20724 1.05909 37005 ft 422 kts 184°
2026-05-07 21:21 47.14848 1.05778 37000 ft 422 kts 183°
2026-05-07 21:21 47.09014 1.05648 37001 ft 422 kts 183°
2026-05-07 21:22 47.03143 1.05517 37000 ft 422 kts 183°
2026-05-07 21:22 46.97274 1.05320 37000 ft 422 kts 184°
2026-05-07 21:23 46.91411 1.05034 36998 ft 422 kts 184°
2026-05-07 21:23 46.85540 1.04760 37002 ft 422 kts 184°
2026-05-07 21:24 46.79665 1.04507 37007 ft 422 kts 184°
2026-05-07 21:24 46.73788 1.04268 37008 ft 423 kts 184°
2026-05-07 21:25 46.67907 1.04023 37010 ft 423 kts 184°
2026-05-07 21:25 46.62028 1.03764 37012 ft 423 kts 184°
2026-05-07 21:26 46.56148 1.03515 36999 ft 423 kts 184°
2026-05-07 21:26 46.50271 1.03806 37004 ft 426 kts 172°
2026-05-07 21:27 46.45458 1.05387 37003 ft 427 kts 170°
2026-05-07 21:27 46.39664 1.07337 37003 ft 427 kts 170°
2026-05-07 21:28 46.33877 1.09263 36994 ft 427 kts 170°
2026-05-07 21:28 46.28092 1.11187 36995 ft 427 kts 170°
2026-05-07 21:29 46.22301 1.13106 37004 ft 427 kts 170°
2026-05-07 21:29 46.16515 1.15025 37006 ft 427 kts 170°
2026-05-07 21:30 46.10719 1.16940 37001 ft 427 kts 170°
2026-05-07 21:30 46.04932 1.18845 37003 ft 427 kts 170°
2026-05-07 21:31 45.99140 1.20759 36998 ft 427 kts 170°
2026-05-07 21:31 45.93348 1.22662 36995 ft 427 kts 170°
2026-05-07 21:32 45.87545 1.24565 36999 ft 428 kts 170°
2026-05-07 21:32 45.81739 1.26460 37004 ft 428 kts 170°
2026-05-07 21:33 45.75925 1.28361 37003 ft 429 kts 170°
2026-05-07 21:33 45.70148 1.30250 36997 ft 429 kts 170°
2026-05-07 21:34 45.64327 1.32147 37001 ft 429 kts 170°
2026-05-07 21:34 45.58503 1.34035 37004 ft 429 kts 170°
2026-05-07 21:35 45.52679 1.35913 36998 ft 429 kts 170°
2026-05-07 21:35 45.46860 1.37791 37001 ft 429 kts 170°
2026-05-07 21:36 45.41040 1.39674 37005 ft 429 kts 170°
2026-05-07 21:36 45.35227 1.41546 36998 ft 428 kts 170°
2026-05-07 21:37 45.29413 1.43416 37002 ft 428 kts 170°
2026-05-07 21:37 45.23601 1.45277 37006 ft 428 kts 170°
2026-05-07 21:38 45.17791 1.47130 37000 ft 428 kts 170°
2026-05-07 21:38 45.12016 1.48973 37007 ft 428 kts 170°
2026-05-07 21:39 45.06203 1.50824 37008 ft 428 kts 170°
2026-05-07 21:39 45.00389 1.52663 37009 ft 428 kts 170°
2026-05-07 21:40 44.94575 1.54507 36982 ft 428 kts 170°
2026-05-07 21:40 44.88766 1.56357 36992 ft 428 kts 170°
2026-05-07 21:41 44.82954 1.58193 36995 ft 428 kts 170°
2026-05-07 21:41 44.77140 1.60021 37004 ft 428 kts 170°
2026-05-07 21:42 44.71332 1.61853 36991 ft 428 kts 170°
2026-05-07 21:42 44.65525 1.63681 36996 ft 428 kts 170°
2026-05-07 21:43 44.59718 1.65494 36993 ft 428 kts 171°
2026-05-07 21:43 44.53909 1.67303 36996 ft 428 kts 171°
2026-05-07 21:44 44.48097 1.69113 37000 ft 428 kts 171°
2026-05-07 21:44 44.42286 1.70923 37001 ft 428 kts 170°
2026-05-07 21:45 44.36517 1.72723 36992 ft 427 kts 171°
2026-05-07 21:45 44.30709 1.74520 36997 ft 427 kts 171°
2026-05-07 21:46 44.24884 1.76091 37000 ft 426 kts 174°
2026-05-07 21:46 44.19029 1.77305 36997 ft 425 kts 175°
2026-05-07 21:47 44.13182 1.78485 37004 ft 425 kts 174°
2026-05-07 21:47 44.07345 1.79753 37005 ft 425 kts 174°
2026-05-07 21:48 44.01513 1.81062 37005 ft 424 kts 174°
2026-05-07 21:48 43.95684 1.82355 37000 ft 424 kts 175°
2026-05-07 21:49 43.89841 1.83203 37003 ft 421 kts 179°
2026-05-07 21:49 43.83996 1.83634 37006 ft 421 kts 180°
2026-05-07 21:50 43.78152 1.84066 36998 ft 421 kts 179°
2026-05-07 21:50 43.72303 1.84611 37000 ft 421 kts 179°
2026-05-07 21:51 43.66460 1.85206 37001 ft 421 kts 179°
2026-05-07 21:51 43.60612 1.85789 36990 ft 421 kts 179°
2026-05-07 21:52 43.54802 1.86348 36996 ft 421 kts 179°
2026-05-07 21:52 43.48951 1.86902 37000 ft 422 kts 179°
2026-05-07 21:53 43.43095 1.87466 37002 ft 422 kts 179°
2026-05-07 21:53 43.37245 1.88025 36997 ft 422 kts 180°
2026-05-07 21:54 43.31387 1.88579 36999 ft 422 kts 180°
2026-05-07 21:54 43.25534 1.89141 37007 ft 422 kts 179°
2026-05-07 21:55 43.19683 1.89704 36996 ft 421 kts 180°
2026-05-07 21:55 43.13834 1.90262 37003 ft 421 kts 180°
2026-05-07 21:56 43.07990 1.90822 37015 ft 421 kts 180°
2026-05-07 21:56 43.02146 1.91379 37008 ft 421 kts 180°
2026-05-07 21:57 42.96311 1.91933 37014 ft 420 kts 180°
2026-05-07 21:57 42.90480 1.92482 37016 ft 420 kts 180°
2026-05-07 21:58 42.84698 1.93033 37016 ft 420 kts 180°
2026-05-07 21:58 42.78872 1.93591 37026 ft 420 kts 180°
2026-05-07 21:59 42.73052 1.94140 37031 ft 419 kts 180°
2026-05-07 21:59 42.67233 1.94798 37034 ft 422 kts 174°
2026-05-07 22:00 42.61505 1.96751 37032 ft 425 kts 169°
2026-05-07 22:00 42.55796 1.98817 37030 ft 424 kts 169°
2026-05-07 22:01 42.50085 2.00868 37039 ft 425 kts 169°
2026-05-07 22:01 42.44372 2.02914 37043 ft 425 kts 169°
2026-05-07 22:02 42.38662 2.04964 37040 ft 425 kts 169°
2026-05-07 22:02 42.32943 2.07003 37044 ft 425 kts 169°
2026-05-07 22:03 42.27227 2.09032 37045 ft 425 kts 170°
2026-05-07 22:03 42.21502 2.11054 37048 ft 425 kts 169°
2026-05-07 22:04 42.15783 2.13081 37040 ft 425 kts 169°
2026-05-07 22:04 42.10054 2.15111 37041 ft 426 kts 169°
2026-05-07 22:05 42.04323 2.17135 37046 ft 426 kts 170°
2026-05-07 22:05 41.98579 2.19161 37048 ft 427 kts 169°
2026-05-07 22:06 41.92835 2.21186 37031 ft 427 kts 170°
2026-05-07 22:06 41.87080 2.23199 37037 ft 428 kts 170°
2026-05-07 22:07 41.81316 2.25207 37036 ft 428 kts 170°
2026-05-07 22:07 41.75554 2.27221 37036 ft 428 kts 170°
2026-05-07 22:08 41.69780 2.29237 37015 ft 429 kts 170°
2026-05-07 22:08 41.64003 2.31261 37017 ft 429 kts 170°
2026-05-07 22:09 41.58218 2.33278 37020 ft 430 kts 170°
2026-05-07 22:09 41.52464 2.35270 37004 ft 430 kts 170°
2026-05-07 22:10 41.46667 2.37276 37011 ft 431 kts 170°
2026-05-07 22:10 41.40860 2.39284 37012 ft 432 kts 170°
2026-05-07 22:11 41.35043 2.41290 37017 ft 432 kts 170°
2026-05-07 22:11 41.29219 2.43310 37001 ft 433 kts 170°
2026-05-07 22:12 41.23381 2.45323 36999 ft 434 kts 171°
2026-05-07 22:12 41.17530 2.47329 37006 ft 434 kts 171°
2026-05-07 22:13 41.11676 2.49333 37007 ft 435 kts 171°
2026-05-07 22:13 41.05812 2.51344 36991 ft 436 kts 171°
2026-05-07 22:14 40.99937 2.53352 36995 ft 436 kts 171°
2026-05-07 22:14 40.94058 2.55351 36651 ft 436 kts 171°
2026-05-07 22:15 40.91123 2.56351 36058 ft 434 kts 170°
2026-05-07 22:15 40.88213 2.57345 35613 ft 429 kts 170°
2026-05-07 22:15 40.85338 2.58326 35143 ft 425 kts 170°
2026-05-07 22:15 40.82491 2.59298 34723 ft 420 kts 170°
2026-05-07 22:16 40.79680 2.60258 34328 ft 415 kts 170°
2026-05-07 22:16 40.76898 2.61205 33930 ft 410 kts 170°
2026-05-07 22:16 40.74153 2.62134 33473 ft 405 kts 170°
2026-05-07 22:16 40.71439 2.63046 33021 ft 400 kts 169°
2026-05-07 22:17 40.68760 2.63942 32572 ft 395 kts 169°
2026-05-07 22:17 40.66111 2.64827 32140 ft 391 kts 169°
2026-05-07 22:17 40.64372 2.65410 31857 ft 387 kts 169°
2026-05-07 22:17 40.61778 2.66285 31431 ft 383 kts 169°
2026-05-07 22:18 40.59211 2.67153 31012 ft 378 kts 168°
2026-05-07 22:18 40.54196 2.68848 30267 ft 367 kts 168°
2026-05-07 22:18 40.51735 2.69677 29816 ft 363 kts 167°
2026-05-07 22:19 40.49362 2.70775 29293 ft 362 kts 158°
2026-05-07 22:19 40.47141 2.72323 28769 ft 361 kts 154°
2026-05-07 22:19 40.44952 2.73922 28255 ft 359 kts 154°
2026-05-07 22:19 40.42775 2.75504 27742 ft 356 kts 153°
2026-05-07 22:20 40.40613 2.77071 27241 ft 354 kts 153°
2026-05-07 22:20 40.38458 2.78630 26748 ft 352 kts 153°
2026-05-07 22:20 40.36317 2.80178 26275 ft 351 kts 153°
2026-05-07 22:20 40.34187 2.81715 25801 ft 349 kts 153°
2026-05-07 22:21 40.32067 2.83244 25339 ft 347 kts 153°
2026-05-07 22:21 40.29957 2.84767 24885 ft 345 kts 153°
2026-05-07 22:21 40.27858 2.86278 24429 ft 344 kts 153°
2026-05-07 22:21 40.25766 2.87783 23988 ft 342 kts 153°
2026-05-07 22:22 40.23684 2.89284 23550 ft 341 kts 153°
2026-05-07 22:22 40.21607 2.90779 23042 ft 340 kts 153°
2026-05-07 22:22 40.19540 2.92269 22542 ft 339 kts 154°
2026-05-07 22:22 40.17479 2.93755 22082 ft 338 kts 154°
2026-05-07 22:23 40.15426 2.95234 21635 ft 336 kts 153°
2026-05-07 22:23 40.13387 2.96705 21201 ft 334 kts 153°
2026-05-07 22:23 40.11361 2.98171 20778 ft 332 kts 153°
2026-05-07 22:23 40.09370 2.99613 20370 ft 331 kts 153°
2026-05-07 22:24 40.07305 3.00988 19960 ft 327 kts 161°
2026-05-07 22:24 40.05159 3.01717 19609 ft 321 kts 175°
2026-05-07 22:24 40.02917 3.01755 19216 ft 318 kts 188°
2026-05-07 22:24 40.00769 3.01103 18849 ft 316 kts 199°
2026-05-07 22:25 39.98726 3.00180 18462 ft 315 kts 199°
2026-05-07 22:25 39.96647 2.99250 18044 ft 315 kts 199°
2026-05-07 22:25 39.94568 2.98325 17593 ft 316 kts 199°
2026-05-07 22:25 39.92495 2.97403 17227 ft 314 kts 198°
2026-05-07 22:26 39.90430 2.96488 16825 ft 313 kts 198°
2026-05-07 22:26 39.88375 2.95580 16469 ft 311 kts 198°
2026-05-07 22:26 39.86323 2.94676 16083 ft 311 kts 198°
2026-05-07 22:26 39.84353 2.93532 15704 ft 311 kts 211°
2026-05-07 22:27 39.82664 2.91785 15376 ft 311 kts 225°
2026-05-07 22:27 39.81341 2.89573 15009 ft 310 kts 235°
2026-05-07 22:27 39.80129 2.87252 14711 ft 308 kts 235°
2026-05-07 22:27 39.78938 2.84983 14590 ft 300 kts 235°
2026-05-07 22:28 39.77777 2.82775 14466 ft 292 kts 235°
2026-05-07 22:28 39.76641 2.80620 14305 ft 287 kts 235°
2026-05-07 22:28 39.75514 2.78486 14047 ft 286 kts 234°
2026-05-07 22:28 39.74390 2.76359 13749 ft 286 kts 235°
2026-05-07 22:29 39.73267 2.74232 13426 ft 286 kts 235°
2026-05-07 22:29 39.72145 2.72111 13128 ft 284 kts 235°
2026-05-07 22:29 39.71028 2.69998 12823 ft 283 kts 235°
2026-05-07 22:29 39.69918 2.67897 12533 ft 282 kts 234°
2026-05-07 22:30 39.68810 2.65797 12195 ft 282 kts 236°
2026-05-07 22:30 39.67705 2.63701 11886 ft 281 kts 236°
2026-05-07 22:30 39.66600 2.61608 11594 ft 280 kts 236°
2026-05-07 22:30 39.65502 2.59530 11285 ft 279 kts 236°
2026-05-07 22:31 39.64405 2.57451 10966 ft 278 kts 236°
2026-05-07 22:31 39.63308 2.55377 10653 ft 279 kts 236°
2026-05-07 22:31 39.62214 2.53310 10350 ft 277 kts 236°
2026-05-07 22:31 39.61124 2.51250 10047 ft 277 kts 236°
2026-05-07 22:32 39.60039 2.49205 9767 ft 274 kts 236°
2026-05-07 22:32 39.58971 2.47196 9378 ft 275 kts 236°
2026-05-07 22:32 39.57890 2.45158 9009 ft 274 kts 236°
2026-05-07 22:32 39.56797 2.43137 8657 ft 273 kts 231°
2026-05-07 22:33 39.55302 2.41685 8315 ft 270 kts 198°
2026-05-07 22:33 39.53481 2.41468 7978 ft 263 kts 165°
2026-05-07 22:33 39.51854 2.42442 7556 ft 258 kts 141°
2026-05-07 22:33 39.50399 2.43806 7151 ft 259 kts 141°
2026-05-07 22:34 39.48953 2.45171 6963 ft 257 kts 141°
2026-05-07 22:34 39.47530 2.46512 6961 ft 246 kts 140°
2026-05-07 22:34 39.46209 2.47843 6980 ft 237 kts 128°
2026-05-07 22:34 39.45477 2.49665 6984 ft 227 kts 96°
2026-05-07 22:35 39.45598 2.51645 6989 ft 221 kts 66°
2026-05-07 22:35 39.46328 2.53386 6988 ft 221 kts 58°
2026-05-07 22:35 39.47117 2.55093 6991 ft 221 kts 57°
2026-05-07 22:35 39.47921 2.56790 6994 ft 221 kts 57°
2026-05-07 22:36 39.48730 2.58480 6996 ft 221 kts 57°
2026-05-07 22:36 39.49540 2.60174 6998 ft 221 kts 57°
2026-05-07 22:36 39.50349 2.61866 7002 ft 221 kts 57°
2026-05-07 22:36 39.51156 2.63560 7002 ft 221 kts 57°
2026-05-07 22:37 39.51961 2.65255 7002 ft 221 kts 57°
2026-05-07 22:37 39.52763 2.66946 7002 ft 221 kts 57°
2026-05-07 22:37 39.53573 2.68657 7003 ft 225 kts 59°
2026-05-07 22:37 39.54397 2.70398 7002 ft 228 kts 59°
2026-05-07 22:38 39.55230 2.72149 7001 ft 227 kts 57°
2026-05-07 22:38 39.56095 2.73837 7001 ft 223 kts 50°
2026-05-07 22:38 39.57272 2.75124 7001 ft 223 kts 33°
2026-05-07 22:38 39.58615 2.76142 7001 ft 225 kts 30°
2026-05-07 22:39 39.60032 2.76969 6975 ft 225 kts 11°
2026-05-07 22:39 39.61585 2.76803 6886 ft 228 kts 340°
2026-05-07 22:39 39.62962 2.75785 6560 ft 231 kts 319°
2026-05-07 22:39 39.63828 2.74045 6245 ft 234 kts 287°
2026-05-07 22:40 39.63841 2.71950 5919 ft 236 kts 253°
2026-05-07 22:40 39.63161 2.70008 5555 ft 238 kts 241°
2026-05-07 22:40 39.62340 2.68140 5205 ft 239 kts 239°
2026-05-07 22:40 39.61501 2.66287 5010 ft 237 kts 239°
2026-05-07 22:41 39.60636 2.64427 5010 ft 244 kts 239°
2026-05-07 22:41 39.59753 2.62543 4980 ft 245 kts 239°
2026-05-07 22:41 39.58871 2.60661 4687 ft 244 kts 239°
2026-05-07 22:41 39.57994 2.58781 4377 ft 243 kts 239°
2026-05-07 22:42 39.57131 2.56909 4116 ft 241 kts 239°
2026-05-07 22:42 39.56281 2.55044 3845 ft 240 kts 239°
2026-05-07 22:42 39.55333 2.53293 3536 ft 235 kts 218°
2026-05-07 22:42 39.53953 2.52409 3413 ft 217 kts 185°
2026-05-07 22:43 39.52500 2.52448 3296 ft 198 kts 161°
2026-05-07 22:43 39.51251 2.53023 3166 ft 184 kts 151°
2026-05-07 22:43 39.50243 2.53869 3079 ft 168 kts 135°
2026-05-07 22:43 39.49451 2.54911 2945 ft 157 kts 117°
2026-05-07 22:44 39.49203 2.56187 2773 ft 144 kts 85°
2026-05-07 22:44 39.49302 2.57450 2567 ft 140 kts 79°
2026-05-07 22:44 39.49519 2.58667 2313 ft 139 kts 70°
2026-05-07 22:44 39.49828 2.59841 2103 ft 138 kts 71°
2026-05-07 22:45 39.50158 2.61002 1911 ft 136 kts 67°
2026-05-07 22:45 39.50554 2.62109 1715 ft 136 kts 62°
2026-05-07 22:45 39.51050 2.63154 1512 ft 135 kts 58°
2026-05-07 22:45 39.51563 2.64177 1343 ft 136 kts 58°
2026-05-07 22:46 39.52051 2.65231 1174 ft 136 kts 62°
2026-05-07 22:46 39.52499 2.66317 981 ft 137 kts 62°
2026-05-07 22:46 39.52988 2.67394 762 ft 139 kts 57°
2026-05-07 22:46 39.53501 2.68464 555 ft 143 kts 58°
2026-05-07 22:47 39.54013 2.69557 382 ft 143 kts 60°
2026-05-07 22:47 39.54533 2.70662 163 ft 143 kts 60°
2026-05-07 22:47 39.55036 2.71742 38 ft 129 kts 59°
2026-05-07 22:47 39.55403 2.72521 38 ft 56 kts 58°
2026-05-07 22:48 39.55493 2.72816 38 ft 28 kts 84°
2026-05-07 22:48 39.55499 2.73021 38 ft 22 kts 88°
2026-05-07 22:48 39.55516 2.73208 36 ft 19 kts 60°
2026-05-07 22:48 39.55589 2.73360 38 ft 21 kts 58°
2026-05-07 22:49 39.55616 2.73501 38 ft 16 kts 128°
2026-05-07 22:49 39.55517 2.73582 38 ft 18 kts 149°
2026-05-07 22:49 39.55406 2.73670 38 ft 20 kts 148°
2026-05-07 22:49 39.55293 2.73759 38 ft 17 kts 150°
2026-05-07 22:50 39.55217 2.73818 38 ft 9 kts 148°
2026-05-07 22:50 39.55174 2.73799 37 ft 7 kts 232°
2026-05-07 22:50 39.55106 2.73798 38 ft 13 kts 149°
2026-05-07 22:50 39.55022 2.73864 38 ft 13 kts 148°
2026-05-07 22:51 39.55000 2.73872 38 ft 2 kts 190°
2026-05-07 22:51 39.54985 2.73850 37 ft 10 kts 235°
2026-05-07 22:51 39.54952 2.73782 38 ft 1 kts 239°
2026-05-07 22:51 39.54948 2.73772 38 ft 3 kts 239°
2026-05-07 22:52 39.54947 2.73771 38 ft 0 kts 239°